This demonstration page uses our WeatherBlox Daily Observations layout. Learn more.

Left ArrowRight Arrow

34.74481, -87.66753

Hourly Observations for September 10, 2019

Temp ( °F °C ) Dew Point ( °F °C ) Humidity (%) Winds ( mph kmh ) Pressure ( in mb ) Visibility ( mi km ) Precip ( " mm )
12:53 am 00:53 Clear 73 22.8 67 19.4 81 81 Calm 30.10 1019 10 16 0.00 0.00
1:53 am 01:53 Clear 73 22.8 68 20 84 84 Calm 30.10 1019 10 16 0.00 0.00
2:53 am 02:53 Clear 70 21.1 67 19.4 90 90 Calm 30.10 1019 10 16 0.00 0.00
3:53 am 03:53 Clear 71 21.7 67 19.4 87 87 Calm 30.11 1020 10 16 0.00 0.00
4:53 am 04:53 Clear 71 21.7 66 18.9 84 84 Calm 30.13 1020 10 16 0.00 0.00
5:53 am 05:53 Clear 70 21.1 66 18.9 87 87 Calm 30.14 1021 10 16 0.00 0.00
6:53 am 06:53 Sunny 70 21.1 66 18.9 87 87 Calm 30.15 1021 10 16 0.00 0.00
7:53 am 07:53 Sunny 75 23.9 67 19.4 76 76 SE 3 6 30.18 1022 10 16 0.00 0.00
8:53 am 08:53 Sunny 81 27.2 67 19.4 62 62 Calm 30.20 1023 10 16 0.00 0.00
9:53 am 09:53 Sunny 86 30 68 20 55 55 ESE 3 6 30.19 1023 10 16 0.00 0.00
10:53 am 10:53 Sunny 91 32.8 68 20 47 47 SW 6 9 30.19 1023 10 16 0.00 0.00
12:53 pm 12:53 Partly Cloudy 93 33.9 70 21.1 47 47 SSW 5 7 30.18 1022 10 16 0.00 0.00
1:43 pm 13:43 Sunny with Nearby Thunderstorms 94 34.4 72 22.2 49 49 NW 6 9 30.15 1021 10 16 0.00 0.00
1:53 pm 13:53 Sunny with Nearby Thunderstorms 94 34.4 72 22.2 49 49 NNW 8 13 30.16 1022 10 16 0.00 0.00
2:27 pm 14:27 Mostly Cloudy with Thunderstorms 82 27.8 68 20 63 63 NNE 9 15 30.16 1021 3 5 0.05 1.27
2:53 pm 14:53 Mostly Cloudy with Thunderstorms 82 27.8 71 21.7 69 69 ENE 15 24 30.16 1022 10 16 0.05 1.27
3:26 pm 15:26 Mostly Sunny 81 27.2 68 20 65 65 VRB 3 6 30.16 1021 10 16 0.00 0.00
3:33 pm 15:33 Sunny with Nearby Thunderstorms 81 27.2 68 20 65 65 ENE 8 13 30.15 1021 10 16 0.00 0.00
3:53 pm 15:53 Mostly Cloudy 81 27.2 69 20.6 67 67 E 5 7 30.16 1021 10 16 0.00 0.00
4:20 pm 16:20 Partly Cloudy with Nearby Thunderstorms 81 27.2 70 21.1 69 69 ESE 8 13 30.15 1021 10 16 0.00 0.00
4:53 pm 16:53 Sunny with Nearby Thunderstorms 81 27.2 69 20.6 67 67 SE 6 9 30.17 1022 10 16 0.00 0.00
5:30 pm 17:30 Sunny 80 26.7 71 21.7 74 74 N 5 7 30.16 1021 10 16 0.00 0.00
5:53 pm 17:53 Sunny 79 26.1 71 21.7 77 77 Calm 30.16 1021 10 16 0.00 0.00
6:53 pm 18:53 Sunny 78 25.6 72 22.2 82 82 ENE 6 9 30.16 1021 10 16 0.00 0.00
7:53 pm 19:53 Clear 76 24.4 69 20.6 79 79 Calm 30.16 1021 10 16 0.00 0.00
8:53 pm 20:53 Clear 74 23.3 70 21.1 88 88 NNE 3 6 30.18 1022 10 16 0.00 0.00
9:53 pm 21:53 Clear 74 23.3 69 20.6 85 85 E 3 6 30.20 1023 10 16 0.00 0.00
10:53 pm 22:53 Clear 73 22.8 69 20.6 87 87 ENE 3 6 30.20 1023 10 16 0.00 0.00
11:53 pm 23:53 Mostly Cloudy 73 22.8 70 21.1 90 90 Calm 30.19 1022 10 16 0.00 0.00

Powered by AerisWeather